Home > Weather > Kunming > Past weeks

Flag for China Weather for the Past 2 Weeks in Kunming, Yunnan, China

Now
52 °F

Clear.


Feels Like: 47 °F
Forecast: 44 / 64 °F
Wind: 15 mph from Southwest

Location: Kunming Airport

Current Time: Feb 13, 2016 at 12:50:51 AM

Latest Report: Feb 13, 2016 at 12:00 AM


Visibility: 10 mi

Pressure: 30.01 "Hg (23.85 "Hg at 1909m altitude)

Humidity: 44%

Dew point: 30 °F

Location of KunmingLocation

Historic Weather in Kunming — Graph

°F

Kunming Temperature Yesterday

Maximum temperature yesterday: 64 °F (at 3:00 PM)
Minimum temperature yesterday: 46 °F (at 2:00 AM)
Average temperature yesterday: 54 °F

High & Low Weather Summary for the Past Weeks

 TemperatureHumidityPressure
High66 °F (Feb 11, 4:00 PM)100% (Jan 31, 1:00 AM)30.51 "Hg (Jan 31, 1:00 AM)
Low30 °F (Jan 29, 7:00 AM)21% (Feb 11, 5:00 PM)29.89 "Hg (Feb 11, 4:00 PM)
Average43 °F72%30.16 "Hg
* Reported Jan 28 11:00 PM — Feb 12 11:00 PM, Kunming, Weather by CustomWeather, © 2016

Note: Actual official high and low records may vary slightly from our data, if they occured in-between our weather recording intervals... More about our weather records

Advertising

Kunming Weather History for the Previous 24 Hours

 ConditionsComfort  
Time TempWeatherWind HumidityBarometerVisibility
11:00 PM
Fri, Feb 12
54 °FClear.20 mph41%30.01 "Hg10 mi
10:00 PM54 °FClear.17 mph41%30.01 "Hg10 mi
9:00 PM55 °FClear.20 mph41%29.98 "Hg10 mi
8:00 PM57 °FPassing clouds.20 mph36%29.95 "HgN/A
7:00 PM59 °FPassing clouds.20 mph29%29.95 "HgN/A
6:00 PM61 °FSunny.29 mph27%29.92 "Hg10 mi
5:00 PM63 °FPassing clouds.29 mph25%29.89 "HgN/A
4:00 PM63 °FSunny.31 mph27%29.89 "Hg10 mi
3:00 PM64 °FSunny.31 mph24%29.89 "Hg10 mi
2:00 PM61 °FSunny.31 mph27%29.92 "Hg10 mi
1:00 PM59 °FSunny.31 mph29%29.95 "Hg10 mi
12:00 PM57 °FSunny.31 mph31%29.98 "Hg10 mi
11:00 AM55 °FSunny.33 mph36%30.01 "Hg10 mi
10:00 AM54 °FSunny.24 mph41%29.98 "Hg10 mi
9:00 AM50 °FSunny.24 mph47%29.98 "Hg10 mi
8:00 AM48 °FSunny.20 mph50%29.98 "Hg10 mi
7:00 AM46 °FClear.17 mph57%29.95 "Hg10 mi
6:00 AM48 °FClear.17 mph58%29.95 "Hg10 mi
5:00 AM46 °FClear.13 mph62%29.95 "Hg10 mi
4:00 AM46 °FClear.8 mph62%29.95 "Hg10 mi
3:00 AM50 °FClear.17 mph54%29.95 "Hg10 mi
2:00 AM46 °FClear.10 mph62%29.98 "Hg10 mi
1:00 AM50 °FClear.17 mph54%29.98 "Hg10 mi
12:00 AM52 °FClear.22 mph50%30.01 "Hg10 mi
Weather by CustomWeather, © 2016

See weather overviewHow to use our weather pages